Location: Borojevi?i
(45.0486°N, 16.2297°E)
Time: 21:55:58
(UTC+00:00)

Spot 2 Rocket - Pass Details

Date: 08 August 2020
Orbit: 756 x 773 km, 98.6° (Epoch: 22 September)

Event Time Altitude Azimuth Distance (km) Brightness Sun altitude
Exits shadow 20:11:26 24° 176° (S) 1,545 4.6 -18.0°
Maximum altitude 20:14:31 73° 257° (WSW) 809 3.6 -18.4°
Drops below altitude 10° 20:19:38 10° 342° (NNW) 2,322 7.0 -19.0°
Sets 20:21:58 0° 345° (NNW) 3,251 7.9 -19.3°
